GEFSGL_500_meanwind_336.txt.gz
Wind_Speed
43 43 43 44 44 44 45 45 45 45 46 47 47 47 48 48 48 48 48 48 47 47 48 48 48 48 48 47 47 46 46 46 46 45 45 45 45 44 44 44 45 45 45
44 44 44 44 45 45 46 46 47 47 47 47 48 49 49 49 49 50 50 49 49 50 49 49 49 49 48 48 48 47 47 47 47 47 46 46 46 45 45 44 44 45 46
45 46 46 46 46 47 47 47 48 49 49 50 50 50 51 51 51 51 51 51 51 51 50 50 50 49 49 49 48 48 48 47 47 47 46 46 46 46 46 45 45 46 46
47 48 48 48 48 48 49 49 50 50 51 52 52 52 52 52 53 53 53 52 52 51 50 50 49 49 50 49 49 49 49 48 48 47 46 46 46 47 47 47 46 46 46
48 48 49 49 50 50 50 50 51 52 52 53 53 53 54 54 54 54 53 52 52 51 50 49 49 48 49 49 49 50 50 49 49 48 48 48 47 47 48 48 47 47 47
48 48 49 49 50 51 51 52 52 52 53 53 53 53 53 53 53 53 52 51 50 50 50 50 50 50 49 49 48 49 49 49 48 48 48 49 49 49 49 49 49 49 48
46 47 48 49 49 50 50 51 51 51 51 51 51 52 52 52 53 52 52 51 51 50 50 50 50 50 50 50 49 48 49 49 49 50 50 50 50 51 51 51 51 50 50
45 46 46 47 48 49 49 49 48 49 49 49 50 51 51 52 52 52 52 51 51 51 51 51 51 51 51 51 51 50 50 50 50 51 51 51 52 52 52 52 51 51 51
46 46 46 46 47 48 48 48 48 48 48 49 49 50 50 50 51 52 52 52 52 52 52 52 52 51 52 52 52 52 52 52 52 52 52 52 52 52 52 51 51 51 50
46 46 47 47 47 47 48 48 48 48 48 49 49 49 49 49 50 51 52 52 51 51 51 52 52 52 53 53 53 53 53 53 53 53 52 52 51 51 51 51 51 50 50
47 47 47 47 48 48 48 48 48 49 49 48 48 49 49 49 49 50 50 51 50 50 50 51 51 52 53 54 54 53 53 52 52 52 51 50 50 50 50 50 50 49 49
47 47 48 48 48 48 48 48 48 48 48 48 48 48 49 49 49 50 50 50 51 51 51 51 52 53 53 53 52 52 51 51 50 50 49 49 49 49 49 49 49 49 48
45 45 46 47 47 47 47 47 47 47 47 47 47 48 48 49 49 50 50 50 50 50 50 50 50 51 52 51 51 50 50 49 48 48 48 48 49 49 50 50 50 49 49
45 45 45 45 46 45 45 46 46 46 46 46 45 46 46 47 47 48 48 49 48 48 47 47 47 48 49 49 49 49 48 48 48 48 48 49 49 49 50 50 50 49 49
45 45 45 45 45 44 44 45 45 45 45 45 45 45 46 45 46 46 46 46 46 46 46 46 46 46 46 46 46 46 47 47 46 46 46 47 47 48 48 48 48 48 47
44 44 44 43 43 43 43 43 43 44 45 45 45 45 45 44 44 44 44 44 44 45 45 45 45 45 45 45 45 45 45 44 44 44 44 44 44 44 45 45 45 45 45
42 42 42 42 42 42 41 41 41 42 42 43 44 44 43 43 43 43 43 43 43 43 43 43 43 43 44 44 44 43 42 42 42 43 43 44 44 44 44 44 45 45 45
41 41 41 41 41 41 40 40 40 39 40 40 41 42 42 43 42 42 42 42 42 43 43 43 43 43 43 43 43 43 42 42 42 42 43 43 43 43 44 44 44 44 44
39 38 39 39 39 39 39 39 38 38 38 39 39 40 41 41 41 41 41 42 42 42 43 43 43 43 43 43 43 43 43 43 43 42 42 43 42 42 42 43 43 44 44
36 37 37 38 38 38 38 37 37 37 38 38 38 39 39 40 40 40 41 41 41 41 41 42 41 41 41 42 42 43 43 43 44 43 43 42 42 42 42 42 43 43 43
35 36 37 37 37 36 36 36 37 37 38 38 38 38 38 39 39 40 41 41 41 40 40 40 40 40 41 41 41 42 42 42 43 43 43 43 42 42 41 41 41 42 42
36 36 36 36 36 36 36 36 36 37 37 37 37 38 38 38 39 39 39 40 40 40 40 40 40 41 41 41 41 41 41 42 42 42 42 42 42 41 41 40 40 40 41
37 37 37 36 36 36 36 36 36 36 36 37 37 37 37 37 38 38 38 38 38 39 40 40 40 40 41 41 41 41 41 41 41 41 41 41 41 41 40 40 40 40 41
37 37 37 36 35 35 34 35 35 36 36 37 37 37 37 37 37 38 38 38 38 39 40 40 40 40 41 41 41 41 41 41 41 41 41 41 41 41 40 40 40 40 40
35 35 36 35 35 35 35 35 35 35 36 36 36 36 36 36 37 37 37 38 39 39 39 40 40 40 40 40 40 40 41 41 41 41 41 40 40 40 40 40 39 39 39
34 34 34 33 33 34 34 35 35 35 35 35 35 35 35 36 36 37 38 38 38 38 38 38 38 38 38 39 39 40 40 40 40 40 40 39 39 39 39 38 38 38 38

GEFSGL_500_meanwind_342.txt.gz
Wind_Speed
41 42 43 43 43 44 45 45 46 46 46 47 47 47 48 47 47 47 47 48 48 49 49 50 50 49 49 50 50 50 50 51 51 50 50 51 51 51 51 50 49 48 48
43 44 44 44 45 45 45 46 47 47 47 47 48 48 48 48 47 46 47 48 49 49 50 50 51 51 50 51 51 52 52 52 53 52 51 51 51 50 50 50 49 49 48
44 45 46 46 46 46 46 47 48 48 49 49 49 50 50 49 49 49 49 49 49 50 50 51 51 52 52 52 52 53 53 53 53 53 52 51 50 50 50 50 50 50 49
45 46 46 47 48 48 47 48 48 49 49 50 50 50 51 51 51 52 51 51 51 51 51 52 52 52 52 53 53 53 53 53 52 52 52 51 50 50 51 51 51 51 51
46 47 47 48 48 49 49 49 49 50 50 51 51 51 52 52 53 53 53 53 53 53 53 53 53 53 53 53 52 52 51 52 52 52 52 51 51 51 51 52 52 52 52
47 47 48 48 49 50 50 51 51 51 51 52 53 53 54 54 53 53 53 53 53 53 53 53 52 52 52 52 51 51 51 50 51 51 50 51 51 51 52 52 52 52 52
47 48 48 49 50 51 52 53 53 53 53 53 53 53 54 53 53 53 53 52 52 52 53 53 53 53 52 52 51 51 50 50 51 51 51 51 51 52 52 52 52 52 51
47 48 49 49 50 50 51 52 53 54 54 54 54 54 53 53 53 53 53 53 52 52 53 53 53 53 53 53 52 51 50 50 51 51 52 52 52 52 51 51 51 51 51
46 47 47 48 49 49 50 50 52 52 53 53 54 53 53 53 53 53 53 53 53 52 52 53 52 52 53 53 53 52 51 51 51 51 51 51 51 51 51 51 51 51 51
46 47 47 47 48 48 49 49 50 51 52 52 53 53 54 53 53 53 52 52 52 52 52 52 52 52 52 52 52 52 52 51 51 51 51 50 50 51 51 51 51 51 50
46 46 47 47 48 48 48 48 49 49 50 51 52 52 53 52 52 52 52 52 52 51 51 51 51 51 51 51 51 51 51 52 52 52 51 50 50 50 50 51 51 51 51
44 45 45 46 47 47 47 48 48 48 49 49 49 49 50 50 51 50 50 51 51 51 50 50 50 51 51 50 50 50 51 51 51 50 50 49 49 49 49 50 50 50 50
42 42 42 43 44 45 46 46 47 47 47 47 47 47 47 48 47 47 47 48 48 48 48 48 49 49 49 49 50 49 49 49 49 48 48 48 48 48 48 48 48 48 48
41 41 41 42 43 44 44 45 45 45 45 45 44 44 44 45 45 45 46 46 46 47 47 48 48 48 48 48 48 48 47 47 47 48 48 48 48 47 47 47 48 48 48
41 41 42 42 42 43 43 44 44 44 44 44 43 43 43 42 43 44 44 45 46 46 47 47 47 47 47 47 47 46 46 46 46 46 46 46 46 46 46 46 47 47 47
40 40 40 40 40 41 41 42 42 43 43 43 43 42 42 41 42 43 43 44 45 46 46 46 46 46 46 46 46 46 45 45 45 45 46 46 45 45 45 45 45 45 46
40 40 39 39 39 39 39 40 40 41 41 42 42 42 41 41 41 42 43 43 43 44 44 44 44 45 45 45 45 45 45 44 44 44 44 44 44 44 44 44 44 44 44
39 39 39 38 38 38 38 38 39 39 39 39 40 40 40 40 40 40 40 41 41 42 42 42 43 43 43 44 44 44 44 44 43 42 42 42 42 42 42 42 43 43 43
39 38 38 38 37 37 37 37 37 37 37 36 37 37 38 38 38 39 39 39 39 39 40 40 40 41 41 42 42 43 43 43 42 42 42 42 42 41 41 42 43 43 43
38 38 37 36 36 36 36 36 35 35 35 35 35 36 37 37 37 37 37 37 37 37 38 38 39 39 40 40 40 41 42 42 42 41 41 42 42 42 42 42 42 42 42
37 36 36 36 35 35 35 35 35 35 35 35 35 35 36 36 36 36 36 37 37 37 38 38 38 39 39 39 40 40 41 41 41 41 40 41 41 42 42 42 41 41 42
36 35 35 35 35 36 36 36 36 36 36 36 36 36 36 36 36 36 36 37 38 38 38 38 39 39 39 39 39 39 39 40 40 40 40 40 40 40 40 41 41 41 42
35 35 35 35 36 36 37 37 37 37 37 37 37 37 37 37 37 37 37 38 39 39 39 39 39 38 38 39 39 39 38 38 39 39 39 39 39 39 40 40 40 41 41
35 35 35 36 36 37 37 38 38 38 38 38 38 38 38 38 38 38 38 38 38 38 39 39 38 38 38 38 38 38 38 39 39 39 39 39 39 39 39 39 40 40 40
35 36 36 36 37 37 37 37 38 38 38 38 38 38 38 38 38 38 38 38 38 38 38 37 37 38 38 38 38 38 38 38 38 38 39 39 39 39 39 39 39 39 39
35 35 36 37 37 37 37 37 37 37 37 37 37 37 37 37 37 37 37 37 37 37 37 36 37 37 37 36 36 36 37 37 37 38 38 38 38 38 38 38 38 38 38

GEFSGL_500_meanwind_348.txt.gz
Wind_Speed
41 41 42 43 43 44 44 44 45 45 46 46 48 49 49 49 49 49 48 49 49 48 48 49 49 48 48 49 49 49 50 50 50 49 49 49 50 51 51 51 52 52 52
43 43 43 44 44 45 45 45 45 46 46 47 48 49 50 51 51 50 50 50 50 49 49 50 51 51 51 51 51 51 50 51 51 51 51 50 51 51 52 53 53 53 54
44 44 45 46 46 46 47 46 47 47 47 47 48 48 49 51 51 52 52 52 52 52 52 52 52 52 52 52 52 52 51 51 51 52 51 52 52 52 52 53 54 54 54
46 46 46 46 47 48 48 48 49 49 49 49 50 50 51 51 51 51 52 53 53 53 53 53 53 52 52 53 53 52 52 52 52 52 52 52 53 52 52 53 53 53 53
46 47 47 47 47 48 49 49 50 51 51 51 52 52 52 53 53 53 54 54 54 54 54 54 54 53 53 54 53 53 53 53 53 54 54 53 53 53 53 53 53 53 53
46 47 48 48 49 49 50 50 51 52 52 53 53 53 54 55 55 55 55 55 55 55 54 55 55 54 54 54 54 54 54 54 55 55 55 55 54 54 54 54 54 53 53
47 47 48 49 49 50 51 51 52 53 53 53 54 55 55 56 56 56 57 57 57 57 56 56 56 55 54 54 54 54 54 54 55 55 55 55 54 54 54 54 53 53 53
49 49 49 49 50 51 52 52 53 53 54 54 55 55 56 57 57 57 57 58 57 57 57 56 56 56 56 55 55 55 54 55 55 55 55 54 54 53 53 52 52 52 51
49 49 50 50 50 51 52 52 53 53 54 54 55 55 56 56 57 57 57 57 57 57 57 56 56 56 57 56 56 55 54 54 54 55 54 53 53 53 53 53 52 51 50
48 48 49 50 50 51 51 52 52 52 52 52 52 53 54 54 55 55 55 56 56 56 56 56 56 56 56 56 56 56 55 54 53 53 53 52 52 52 52 52 52 51 50
47 48 48 49 49 49 49 50 50 50 50 50 49 49 50 50 51 52 52 53 53 54 54 54 54 55 55 54 54 54 53 53 52 52 52 52 51 51 51 50 50 49 49
46 46 47 47 48 48 48 48 48 48 48 48 47 47 47 47 48 49 50 50 51 51 51 51 51 51 51 51 52 52 51 50 50 50 50 50 50 49 49 48 48 47 48
44 45 46 47 47 47 47 47 46 46 46 46 45 45 46 45 45 46 46 47 48 48 48 47 47 48 47 48 48 49 48 48 48 48 49 49 48 48 49 49 49 49 49
43 43 44 44 44 44 45 45 45 45 45 45 44 44 44 43 44 44 45 45 46 46 46 45 45 45 45 46 47 47 48 48 48 48 48 48 48 49 49 49 49 48 48
42 42 42 42 42 42 42 43 43 43 43 44 44 44 44 44 44 44 44 44 44 44 44 44 45 45 45 46 47 47 48 49 49 48 48 48 48 48 48 48 47 47 47
42 42 42 42 42 42 42 41 41 41 41 41 41 42 42 43 43 42 42 42 43 43 43 43 43 44 45 45 46 47 47 48 48 48 48 47 47 47 47 46 46 46 46
41 41 42 41 41 41 41 41 40 40 40 40 40 40 40 40 41 41 41 41 41 42 42 42 43 43 43 44 44 45 46 46 46 46 46 46 46 46 46 46 46 45 45
41 41 41 41 41 41 40 40 40 39 39 38 38 38 38 38 38 39 39 39 39 40 41 41 42 42 42 42 43 44 44 45 45 45 45 45 45 45 45 45 45 44 44
40 40 41 40 40 40 39 39 38 38 37 37 37 37 36 37 37 37 37 38 38 38 39 40 40 40 41 41 41 42 42 43 44 44 44 44 45 45 44 44 44 44 43
41 41 41 40 40 39 39 38 37 37 36 36 36 36 36 36 36 37 37 38 38 38 38 39 38 39 39 40 40 40 41 41 42 42 43 43 43 44 44 43 43 43 42
40 41 41 41 40 40 39 38 37 37 37 37 36 36 37 37 37 37 38 38 38 38 38 38 38 38 38 38 39 39 40 41 41 42 42 42 43 43 43 42 42 42 42
39 39 39 39 39 39 38 38 37 37 37 37 37 38 38 38 39 39 39 39 38 38 37 37 37 37 38 38 39 40 40 41 42 42 42 42 42 42 41 41 41 41 41
37 37 37 37 37 37 37 37 37 37 38 38 38 39 39 39 39 39 39 38 38 37 37 37 37 37 38 38 39 39 40 41 41 41 41 40 40 40 39 39 39 39 39
36 36 36 36 35 35 35 35 36 37 37 37 38 39 40 40 39 39 39 38 38 38 38 38 37 37 38 38 38 39 39 40 40 40 40 40 39 39 38 38 38 38 39
35 35 35 34 34 34 34 35 35 36 36 37 37 38 38 39 38 38 38 38 38 38 38 38 37 37 37 38 38 38 38 39 39 39 39 39 39 38 38 37 37 37 38
35 34 34 34 33 33 33 33 33 34 35 36 36 36 37 37 38 38 38 38 38 38 38 38 38 38 38 38 38 38 37 37 37 37 37 37 37 36 36 36 36 37 37

GEFSGL_500_meanwind_354.txt.gz
Wind_Speed
40 41 42 43 44 45 45 45 45 45 45 45 46 46 47 47 47 47 47 47 48 48 49 49 49 49 49 49 50 51 51 51 51 49 49 49 50 49 50 51 51 51 51
41 42 43 44 44 44 45 45 46 47 47 47 47 48 47 48 49 49 49 49 49 50 50 50 51 51 51 51 51 51 51 52 52 52 51 50 50 50 50 50 51 51 51
41 42 43 44 44 44 45 45 47 48 48 49 49 49 49 49 49 49 50 50 51 51 52 52 52 53 53 53 53 52 52 53 53 53 52 52 52 51 51 51 52 52 52
42 42 43 44 44 44 46 47 48 48 49 49 49 49 50 50 51 50 51 51 52 52 53 53 53 53 53 54 53 53 53 53 53 53 53 53 53 53 53 52 53 54 54
41 42 42 44 45 46 47 48 49 50 50 50 50 50 50 51 51 51 52 53 53 53 53 54 54 53 53 54 54 54 54 53 54 54 54 54 53 53 54 54 55 55 55
42 42 43 45 46 47 48 48 48 50 50 50 51 50 50 51 51 51 52 54 53 53 54 54 55 54 54 54 54 55 55 55 55 55 55 55 54 54 54 55 55 56 56
44 44 44 45 46 47 48 47 47 47 48 49 49 50 50 51 52 52 52 53 53 53 53 54 54 55 55 54 54 55 55 55 56 56 56 56 55 55 55 55 55 56 55
44 45 45 46 46 46 47 47 47 46 46 47 48 49 50 51 52 53 53 53 53 53 53 54 54 54 55 56 55 55 54 54 55 55 55 55 55 55 54 54 54 54 54
44 45 45 45 45 45 46 47 47 48 47 48 48 49 49 51 52 53 53 54 53 53 53 53 54 54 55 55 55 55 54 54 54 54 54 54 53 53 53 54 54 54 54
44 44 45 45 45 45 46 46 47 48 48 48 49 49 49 50 51 52 53 53 53 53 53 53 54 54 54 54 55 55 54 54 53 53 52 52 52 52 52 53 53 53 53
43 43 44 45 46 46 47 47 47 47 48 48 49 50 50 50 50 50 51 51 51 51 51 52 52 52 52 52 53 53 53 53 52 51 51 51 51 51 51 51 51 51 52
43 43 44 45 46 46 47 47 48 48 48 48 49 49 49 49 49 48 48 48 49 49 49 49 49 49 50 50 50 50 50 50 50 50 50 50 49 49 49 49 49 49 49
43 44 44 45 45 46 47 47 48 48 48 47 46 46 46 46 46 46 46 46 47 47 47 48 48 48 48 48 48 47 48 48 48 48 48 48 48 48 48 47 48 48 48
44 45 45 45 46 46 47 47 47 47 46 46 45 44 44 44 45 44 44 44 45 45 46 46 47 47 47 47 47 46 47 47 48 48 48 48 48 47 47 47 47 47 47
44 45 46 46 46 46 46 46 45 45 44 44 43 43 43 43 43 44 44 43 44 44 45 45 45 45 44 45 45 45 46 46 47 47 48 48 48 47 47 48 48 48 47
44 45 45 45 45 45 44 44 44 44 43 42 42 42 42 42 42 43 43 43 44 44 44 43 43 43 43 43 43 43 44 45 46 46 47 47 48 48 48 48 48 48 48
44 44 44 44 44 44 44 43 42 42 42 41 41 41 41 41 42 42 43 43 43 44 43 42 41 41 41 41 42 42 43 44 45 45 46 47 47 48 47 47 47 47 47
43 43 43 42 43 43 42 42 41 41 41 41 40 40 40 40 40 40 41 41 41 42 42 42 41 41 40 40 40 41 41 42 43 44 45 45 46 47 47 46 46 46 46
42 42 42 42 42 41 41 41 41 41 40 40 40 39 39 39 39 40 39 39 39 40 40 40 40 40 40 40 41 41 41 41 42 42 43 44 44 45 45 45 45 45 45
41 40 40 41 41 40 40 40 40 40 40 39 39 39 39 39 39 39 39 39 39 39 39 39 39 39 39 40 41 41 41 42 42 42 42 43 43 43 43 43 43 43 42
39 39 39 39 39 39 38 38 39 39 39 38 38 38 38 38 39 39 38 39 39 39 39 39 39 39 39 39 39 39 40 40 41 42 42 42 42 41 41 41 41 41 41
37 38 38 38 38 37 37 37 37 37 37 37 37 37 38 38 38 38 38 39 39 39 39 39 39 39 39 39 39 39 39 39 39 40 40 40 40 40 40 40 40 40 40
36 37 37 37 37 37 37 37 37 36 36 37 37 37 38 38 38 38 38 38 39 39 39 39 39 40 40 40 40 40 39 39 39 40 39 39 39 39 39 39 39 39 39
35 35 35 35 35 35 35 35 35 35 36 37 37 37 37 37 37 37 37 38 38 39 39 39 40 40 39 39 40 40 40 40 40 39 39 39 39 38 38 37 37 36 36
33 33 33 33 33 33 33 33 33 34 35 35 36 36 36 37 36 36 36 36 36 37 37 38 38 38 38 38 38 38 38 38 38 38 37 37 36 36 36 36 35 35 35
31 31 31 31 32 31 31 32 33 33 34 34 34 34 34 34 34 35 35 35 36 36 36 36 35 36 36 36 36 36 36 36 36 36 35 35 35 35 35 35 35 35 35